Location: Bittkow
(50.3000°N, 19.0000°E)
Time: 05:19:14
(UTC+00:00)

Lacrosse 5 - Pass Details

Date: 19 September 2020
Orbit: 716 x 723 km, 57.0° (Epoch: 20 October)

Event Time Altitude Azimuth Distance (km) Brightness Sun altitude
Exits shadow 03:07:41 19° 254° (WSW) 1,656 3.1 -13.1°
Maximum altitude 03:11:15 67° 333° (NNW) 780 2.0 -12.6°
Drops below altitude 10° 03:16:19 10° 57° (ENE) 2,209 5.7 -11.8°
Sets 03:18:44 0° 60° (ENE) 3,133 6.9 -11.4°
